Погода в Кирничках

Украина / Одесская область     45°42′24″N   29°03′48″E
темп.,
°C
ветер,
м/с
пор.,
м/с
влажн.,
%
обл.,
%
осадки,
мм/ч
давл.,
гПа
погр.,
м
5 марта, пт
пт523:00+8юз49705 0.0 1013164
02:00+7зюз346835 0.0 101267
05:00+6з346033 0.0 101231
08:00+7ссз246317 0.0 1012105
11:00+12зюз11480 0.0 1012461
14:00+16з463527 0.0 10111156
17:00+14юз4641100 0.0 1010250
20:00+11юз464752 0.0 101291
6 марта, сб
сб623:00+8ссз8137989 0.0 1014468
02:00+5ссз8137762 0.0 1017620
05:00+5с7107193 0.0 10191063
08:00+2с7116797 0.0 1023829
11:00+4с8947100 0.0 10251266
14:00+5с7834100 0.0 10261715
17:00+5с672942 0.0 10271995
20:00+2ссв234221 0.0 102963
7 марта, вс
вс723:00+1зсз23520 0.0 103131
02:000сз36630 0.0 1031118
05:00−1ссз23640 0.0 103050
08:00+1зюз12490 0.0 1030143
11:00+5юз68420 0.0 10281435
14:00+7зюз79360 0.0 10251658
17:00+7юз79400 0.0 10221438
20:00+4ююз510530 0.0 1021253
8 марта, пн
пн823:00+2ююз486311 0.0 1020196
02:00+1юз497334 0.0 1019231
05:000юз34840 0.0 101880
08:00+2зюз23730 0.0 1018139
11:00+6ю114525 0.0 1017565
14:00+8ююз333760 0.0 10161090
17:00+8юз344196 0.0 1014794
20:00+5ююв346453 0.0 101581
9 марта, вт
вт923:00+4ю127592 0.0 101522
02:00+3с227371 0.0 101522
05:00+2с612630 0.0 1017343
08:00+2с710726 0.0 1019523
11:00+5ссв78440 0.0 1020885
14:00+7ссв55390 0.0 10201423
17:00+5ссв66370 0.0 10201292
20:00+2ссв48480 0.0 1022290